Location: Newark
(51.7378°N, 19.8125°E)
Time: 22:44:17
(UTC+00:00)

Envisat - Pass Details

Date: 17 December 2019
Orbit: 764 x 766 km, 98.1° (Epoch: 21 January)

Event Time Altitude Azimuth Distance (km) Brightness Sun altitude
Rises 16:37:08 0° 171° (S) 3,222 6.3 -18.2°
Reaches altitude 10° 16:39:26 10° 174° (S) 2,300 5.6 -18.5°
Maximum altitude 16:44:29 68° 257° (WSW) 826 3.3 -19.3°
Drops below altitude 10° 16:49:35 10° 341° (NNW) 2,317 5.6 -20.1°
Sets 16:51:55 0° 344° (NNW) 3,248 6.3 -20.4°
